Regional Weather Roundup
Issued by NWS

Home | Current Version | Previous Version | Text Only | Print | Product List | Glossary Off
Versions: 1 2 3 4 5 6 7 8 9 10 11 12 13 14 15 16 17 18 19 20 21 22 23 24 25 26 27 28 29 30 31 32 33 34 35 36 37 38 39 40 41 42 43 44 45 46 47 48 49 50

000
ASUS43 KFSD 242310
RWRSD

WEATHER ROUNDUP FOR SOUTH DAKOTA
NATIONAL WEATHER SERVICE SIOUX FALLS SD
600 PM CDT SUN MAY 24 2015

NOTE: "FAIR" INDICATES FEW OR NO CLOUDS BELOW 12,000 FEET WITH NO
SIGNIFICANT WEATHER AND/OR OBSTRUCTIONS TO VISIBILITY.


SDZ001>005-009-010-012>017-250000-
NORTHWEST AND NORTH CENTRAL SOUTH DAKOTA

CITY           SKY/WX    TMP DP  RH WIND       PRES   REMARKS
BUFFALO          N/A     56  53  90 N8        29.87S
FAITH            N/A     57  53  86 E8        29.89F
MOBRIDGE       LGT RAIN  61  57  87 E13       29.87S
$$

SDZ012>016-024>037-041>051-057-063-072>074-250000-
SOUTHWEST AND SOUTH CENTRAL SOUTH DAKOTA

CITY           SKY/WX    TMP DP  RH WIND       PRES   REMARKS
RAPID CTY ARPT CLOUDY    55  53  93 NE12      29.86F
PIERRE         CLOUDY    60  56  86 E12       29.84S
CUSTER         CLOUDY    52  47  83 E10       29.89S
ELLSWORTH AFB  CLOUDY    55  55 100 NE14      29.87
PHILIP         CLOUDY    60  58  92 E10       29.84S
PINE RIDGE     CLOUDY    65  54  67 N17       29.80F
SPEARFISH      LGT RAIN  50  50 100 NE10      29.92S VSB 3/4
WINNER         CLOUDY    62  57  83 E9        29.83S
$$

SDZ004>011-016>023-039-040-250000-
NORTHEAST SOUTH DAKOTA

CITY           SKY/WX    TMP DP  RH WIND       PRES   REMARKS
ABERDEEN       CLOUDY    64  55  72 E13       29.87F
WATERTOWN      LGT RAIN  59  57  93 E9        29.86F FOG
BROOKINGS      CLOUDY    59  57  94 E9        29.85S
SISSETON         N/A     59  58  96 E8        29.89F
$$

SDZ017-020-022-023-036>040-048>070-250000-
SOUTHEAST SOUTH DAKOTA

CITY           SKY/WX    TMP DP  RH WIND       PRES   REMARKS
SIOUX FALLS    CLOUDY    62  59  90 NE8       29.81S
HURON          CLOUDY    61  59  93 E6        29.84S
CHAMBERLAIN    CLOUDY    59  58  97 NE7       29.83F FOG
MITCHELL       CLOUDY    64  60  87 E10       29.82S
YANKTON        CLOUDY    63  59  88 CALM      29.80S
$$

ABBREVIATIONS USED IN REMARKS
   TC - TEMPERATURE IN CELSIUS
  WCI - WIND CHILL INDEX
   HX - HEAT INDEX
  VSB - VISIBILITY




USA.gov is the U.S. government's official web portal to all federal, state and local government web resources and services.